Home   Weather   Corner Brook   Past weeks

Flag for Canada Past Weather in Corner Brook, Newfoundland and Labrador, Canada — Yesterday and Last 2 Weeks

Now
-2 °F

Clear.


Feels Like: -2 °F
Forecast: N/A
Wind: No wind

Location: Deer Lake

Current Time: Jan 18, 2017 at 6:58:52 pm

Latest Report: Jan 18, 2017 at 6:30 pm


Visibility: 15 mi

Pressure: 30.25 "Hg

Humidity: 84%

Dew Point: -6 °F

Location of Corner BrookLocation

Past Weather in Corner Brook — Graph

°F

Corner Brook Temperature Yesterday

Maximum temperature yesterday: 23 °F (at 4:30 am)
Minimum temperature yesterday: 1 °F (at 10:30 pm)
Average temperature yesterday: 17 °F

High & Low Weather Summary for the Past Weeks

 TemperatureHumidityPressure
High45 °F (Jan 12, 12:30 pm)100% (Jan 12, 7:30 am)30.80 "Hg (Jan 12, 7:30 am)
Low-15 °F (Jan 18, 7:30 am)53% (Jan 12, 12:30 pm)29.19 "Hg (Jan 5, 12:30 pm)
Average20 °F79%30.00 "Hg
* Reported Jan 3 5:30 pm — Jan 18 5:30 pm, Corner Brook, Weather by CustomWeather, © 2017

Note: Actual official high and low records may vary slightly from our data, if they occured in-between our weather recording intervals... More about our weather records

Advertising

Corner Brook Weather History for the Previous 24 Hours

Scroll right to see more
 ConditionsComfort  
Time TempWeatherWind HumidityBarometerVisibility
5:30 pm
Wed, Jan 18
1 °FClear.2 mph85%30.25 "Hg15 mi
4:30 pm10 °FClear.No wind72%30.24 "Hg15 mi
3:30 pm12 °FPassing clouds.2 mph67%30.24 "Hg15 mi
2:30 pm12 °FPassing clouds.2 mph62%30.25 "Hg15 mi
1:30 pm10 °FPassing clouds.2 mph67%30.26 "Hg15 mi
12:30 pm9 °FPassing clouds.6 mph66%30.27 "Hg15 mi
11:30 am5 °FScattered clouds.No wind72%30.31 "Hg15 mi
10:30 am-2 °FScattered clouds.No wind84%30.32 "Hg15 mi
9:30 am-9 °FScattered clouds.2 mph84%30.31 "Hg15 mi
8:30 am-13 °FPassing clouds.7 mph76%30.29 "Hg15 mi
7:30 am-15 °FPassing clouds.3 mph76%30.30 "Hg15 mi
6:30 am-11 °FClear.No wind76%30.28 "Hg15 mi
6:07 am-11 °FClear.6 mph76%30.27 "Hg15 mi
5:30 am-13 °FClear.5 mph83%30.25 "Hg15 mi
4:30 am-11 °FClear.8 mph84%30.24 "Hg15 mi
3:30 am-8 °FClear.No wind77%30.23 "Hg15 mi
2:30 am-6 °FPassing clouds.2 mph77%30.21 "Hg15 mi
1:30 am-6 °FPassing clouds.2 mph84%30.18 "Hg15 mi
12:30 am-2 °FPassing clouds.No wind77%30.16 "Hg15 mi
11:30 pm
Tue, Jan 17
1 °FPassing clouds.No wind78%30.15 "Hg15 mi
10:30 pm1 °FPartly cloudy.6 mph85%30.15 "Hg15 mi
9:30 pm10 °FPartly cloudy.5 mph79%30.13 "Hg15 mi
8:30 pm9 °FMostly cloudy.No wind78%30.10 "Hg15 mi
7:30 pm12 °FPassing clouds.3 mph79%30.07 "Hg15 mi
6:40 pm12 °FPassing clouds.6 mph79%30.04 "Hg15 mi
6:30 pm12 °FSnow flurries. Passing clouds.6 mph79%30.04 "Hg10 mi
Weather by CustomWeather, © 2017

See weather overviewHow to use our weather pages